STARLINK-34609, 64768

Orbit data source: Space-Track

STARLINK-34609, 64768 is a payload satellite owned by SpaceX/Seattle (US) in LEO that was launched on Tue, 08 Jul 2025 UTC via an FALCON 9 launch vehicle from the Air Force Eastern Test Range (AFETR). Payload-class satellites include a variety of spacecraft equipped with specific instruments for various scientific and technological missions. These include communications satellites like Starlink; space stations such as the ISS; scientific satellites like the Hubble; Earth observation satellites from companies like Planet Labs, Umbra, and HawkEye 360; GPS; miniature CubeSats for education and research; and military/defense satellites.

Loading next visibility...
Identifier
64768, 2025-147P
Orbit
LEO
Country
Flag of USUS
Related business
Manufacturer
SpaceX/Seattle
Mission
Operational Commercial Communications
Bus & Motor
STARLINK V2MO, Unknown motor
Mass
575 kg wet, ~530 kg dry
Launch date (UTC)
2025-07-08 (11 months ago)
Launch vehicle
FALCON 9
Launch site
Air Force Eastern Test Range (AFETR)
Object type
Payload
Rocket body
Debris
Shape & HBR
Box + 2 Pan, 17.7 m
Radar Cross Section
36.964 m², Large (>1 m²)

Expand to show TLE details & history
Last TLE update: 1 day ago

TLE from 1 day ago
0 STARLINK-34609
1 64768U 25147P   26170.59129527  .00018156  00000-0  62356-3 0  9992
2 64768  53.1588 119.4668 0001575 100.9954 259.1224 15.30203490 54498
Epoch: 2026-06-19T14:11Z
TLE epoch observation values (Epoch: 2026-06-19T14:11:27.911Z)
Latitude
-0.00001°
Longitude
-1.21758°
Altitude
476.308 km
Speed
7.629 km/s
True Right ascension
07h 57m 52s
True Declination
0° 00' 00"
Sunlit
Object was in daylight at epoch
Visualization orbit readout
Latitude
Unknown
Longitude
Unknown
Altitude
Unknown
Speed
Unknown
Apparent Right ascension
Unknown
Apparent Declination
Unknown
Sunlit
N/A
Visualization observer readout
Local Sidereal Time
07:19:30
Azimuth
Unknown
Elevation
Unknown
Doppler factor
Unknown
Orbital elements
Apogee altitude
476.541 km
Perigee altitude
474.382 km
Semi-major axis
6,853.598 km
Eccentricity
0.00016
Inclination
53.1588°
RAAN
119.4668°
Arg. of periapsis
100.9954°
True anomaly
259.10468°
Mean anomaly
259.1224°
Eccentric anomaly
259.11354°
Mean motion
3.8253 °/min
Orbital period
94.11 mins
BSTAR
0.00062356
Loading maneuver chart data...
Computing Atmospheric mass density...
Loading historical data...
Loading historical data...
Loading historical data...
Loading historical data...
Loading historical data...
Loading historical data...
Loading historical data...

Documentation

Showing up to 5 results
|